Home > Weather > Tacoma > Past weeks

Flag for USA Past Weather in Tacoma, Washington, USA — Yesterday and Last 2 Weeks

Now
54 °F

Clear.


Feels Like: 53 °F
Forecast: 55 / 79 °F
Wind: 5 mph from Southwest

Location: Tacoma Narrows Airport

Current Time: Jun 28, 2016 at 2:42:40 AM

Latest Report: Jun 28, 2016 at 1:53 AM


Visibility: 10 mi

Pressure: 30.20 "Hg

Humidity: 93%

Dew Point: 52 °F

Location of TacomaLocation

Past Weather in Tacoma — Graph

°F

Tacoma Temperature Yesterday

Maximum temperature yesterday: 82 °F (at 3:53 PM)
Minimum temperature yesterday: 57 °F (at 11:53 PM)
Average temperature yesterday: 69 °F

High & Low Weather Summary for the Past Weeks

 TemperatureHumidityPressure
High82 °F (Jun 27, 3:53 PM)100% (Jun 18, 6:53 AM)30.42 "Hg (Jun 18, 6:53 AM)
Low46 °F (Jun 15, 2:53 AM)27% (Jun 19, 3:53 PM)29.91 "Hg (Jun 15, 3:53 PM)
Average59 °F70%30.13 "Hg
* Reported Jun 13 12:53 AM — Jun 28 12:53 AM, Tacoma, Weather by CustomWeather, © 2016

Note: Actual official high and low records may vary slightly from our data, if they occured in-between our weather recording intervals... More about our weather records

Advertising

Tacoma Weather History for the Previous 24 Hours

Scroll right to see more
 ConditionsComfort  
Time TempWeatherWind HumidityBarometerVisibility
12:53 AM
Tue, Jun 28
55 °FClear.6 mph90%30.19 "Hg10 mi
11:53 PM
Mon, Jun 27
57 °FClear.5 mph83%30.18 "Hg10 mi
10:53 PM59 °FClear.6 mph78%30.17 "Hg10 mi
9:53 PM63 °FSunny.7 mph70%30.15 "Hg10 mi
8:53 PM67 °FSunny.7 mph59%30.13 "Hg10 mi
7:53 PM72 °FSunny.9 mph52%30.12 "Hg10 mi
6:53 PM76 °FSunny.8 mph48%30.11 "Hg10 mi
5:53 PM79 °FSunny.8 mph44%30.11 "Hg10 mi
4:53 PM81 °FSunny.6 mph39%30.12 "Hg10 mi
3:53 PM82 °FSunny.7 mph40%30.12 "Hg10 mi
2:53 PM81 °FSunny.7 mph39%30.12 "Hg10 mi
1:53 PM79 °FSunny.6 mph39%30.13 "Hg10 mi
12:53 PM77 °FSunny.6 mph39%30.14 "Hg10 mi
11:53 AM76 °FSunny.6 mph45%30.15 "Hg10 mi
10:53 AM72 °FSunny.5 mph52%30.15 "Hg10 mi
9:53 AM70 °FPartly sunny.5 mph53%30.16 "Hg10 mi
8:53 AM66 °FSunny.3 mph61%30.16 "Hg10 mi
7:53 AM63 °FSunny.No wind68%30.15 "Hg10 mi
6:53 AM60 °FPartly sunny.No wind75%30.16 "Hg10 mi
5:53 AM58 °FPassing clouds.No wind78%30.14 "Hg10 mi
4:53 AM59 °FPassing clouds.No wind75%30.13 "Hg10 mi
3:53 AM60 °FPassing clouds.No wind72%30.13 "Hg10 mi
2:53 AM63 °FPassing clouds.3 mph63%30.12 "Hg10 mi
Weather by CustomWeather, © 2016

See weather overviewHow to use our weather pages